Beatrice, NE

2:50 PM CDT on June 25, 2017 (GMT -0500)
Beatrice Municipal

Weather History for KBIE - January, 2012

Change the Weather History Date:

Monday, January 2, 2012

  Actual Average Record
Temperature  
Mean Temperature 25 °F -  
Max Temperature 35 °F 31 °F 62 °F (1997)
Min Temperature 15 °F 14 °F -7 °F (1979)
Degree Days  
Heating Degree Days 40    
Moisture  
Dew Point 7 °F    
Average Humidity 49    
Maximum Humidity 79    
Minimum Humidity 22    
Precipitation  
Precipitation 0.00 in - - ()
Sea Level Pressure  
Sea Level Pressure 30.61 in    
Wind  
Wind Speed 11 mph (NW)    
Max Wind Speed 17 mph    
Max Gust Speed 23 mph    
Visibility 10 miles    
Events      
Averages and records for this station are not official NWS values.
T = Trace of Precipitation, MM = Missing Value Source: NWS Daily Summary

Daily Weather History Graph

Daily Weather History Graph

Search for Another Location

Airport or City:

Trip Planner

Search our weather history database for the weather conditions in past years. The results will help you decide how hot, cold, wet, or windy it might be!

Date:

Astronomy

Jan. 02, 2012 Rise Set
Actual Time 7:49 AM CST 5:12 PM CST
Civil Twilight 7:19 AM CST 5:42 PM CST
Nautical Twilight 6:45 AM CST 6:16 PM CST
Astronomical Twilight 6:12 AM CST 6:49 PM CST
Moon 12:29 PM CST (1/2) 1:43 AM CST (1/2)
Length of Visible Light 10h 23m
Length of Day
9h 22m
Waxing Gibbous, 64% of the Moon is Illuminated
Jan 2
Waxing Gibbous
Jan 9
Full
Jan 16
Last Quarter
Jan 23
New
Jan 30
First Quarter

Hourly Weather History & Observations

Time (CST) Temp. Windchill Dew Point Humidity Pressure Visibility Wind Dir Wind Speed Gust Speed Precip Events Conditions
12:15 AM 24.8 °F 16.9 °F 10.4 °F 54% 30.59 in 10.0 mi West 6.9 mph - N/A   Clear
12:35 AM 23.0 °F 12.4 °F 10.4 °F 59% 30.60 in 10.0 mi WNW 10.4 mph - N/A   Clear
12:55 AM 23.0 °F 12.4 °F 10.4 °F 59% 30.60 in 10.0 mi WNW 10.4 mph - N/A   Clear
1:15 AM 23.0 °F 12.4 °F 10.4 °F 59% 30.61 in 10.0 mi WNW 10.4 mph - N/A   Clear
1:35 AM 23.0 °F 12.4 °F 10.4 °F 59% 30.61 in 10.0 mi WNW 10.4 mph - N/A   Clear
1:55 AM 23.0 °F 12.4 °F 10.4 °F 59% 30.60 in 10.0 mi WNW 10.4 mph - N/A   Clear
2:15 AM 23.0 °F 13.1 °F 10.4 °F 59% 30.61 in 10.0 mi West 9.2 mph - N/A   Clear
2:35 AM 21.2 °F 10.1 °F 10.4 °F 63% 30.61 in 10.0 mi WNW 10.4 mph - N/A   Clear
2:55 AM 23.0 °F 11.1 °F 10.4 °F 59% 30.61 in 10.0 mi WNW 12.7 mph - N/A   Clear
3:15 AM 23.0 °F 11.7 °F 10.4 °F 59% 30.62 in 10.0 mi WNW 11.5 mph - N/A   Clear
3:35 AM 23.0 °F 11.7 °F 10.4 °F 59% 30.62 in 10.0 mi WNW 11.5 mph - N/A   Clear
3:55 AM 23.0 °F 11.7 °F 10.4 °F 59% 30.62 in 10.0 mi WNW 11.5 mph - N/A   Clear
4:15 AM 23.0 °F 11.1 °F 10.4 °F 59% 30.62 in 10.0 mi WNW 12.7 mph - N/A   Clear
4:35 AM 23.0 °F 10.6 °F 10.4 °F 59% 30.62 in 10.0 mi WNW 13.8 mph - N/A   Clear
4:55 AM 23.0 °F 11.1 °F 10.4 °F 59% 30.62 in 10.0 mi WNW 12.7 mph - N/A   Clear
5:15 AM 21.2 °F 8.9 °F 10.4 °F 63% 30.62 in 10.0 mi WNW 12.7 mph - N/A   Clear
5:35 AM 21.2 °F 10.1 °F 10.4 °F 63% 30.62 in 10.0 mi WNW 10.4 mph - N/A   Clear
5:55 AM 19.4 °F 8.6 °F 10.4 °F 68% 30.61 in 10.0 mi WNW 9.2 mph - N/A   Clear
6:15 AM 19.4 °F 7.9 °F 10.4 °F 68% 30.61 in 10.0 mi WNW 10.4 mph - N/A   Clear
6:35 AM 19.4 °F 8.6 °F 10.4 °F 68% 30.61 in 10.0 mi West 9.2 mph - N/A   Clear
6:55 AM 19.4 °F 7.9 °F 10.4 °F 68% 30.61 in 10.0 mi West 10.4 mph - N/A   Clear
7:15 AM 17.6 °F 6.4 °F 10.4 °F 73% 30.61 in 10.0 mi West 9.2 mph - N/A   Clear
7:35 AM 17.6 °F 7.3 °F 10.4 °F 73% 30.62 in 10.0 mi West 8.1 mph - N/A   Clear
7:55 AM 15.8 °F 5.1 °F 8.6 °F 73% 30.62 in 10.0 mi West 8.1 mph - N/A   Clear
8:15 AM 15.8 °F 4.2 °F 10.4 °F 79% 30.63 in 10.0 mi West 9.2 mph - N/A   Clear
8:35 AM 17.6 °F 7.3 °F 10.4 °F 73% 30.64 in 10.0 mi West 8.1 mph - N/A   Clear
8:55 AM 19.4 °F 7.2 °F 10.4 °F 68% 30.66 in 10.0 mi WNW 11.5 mph - N/A   Clear
9:15 AM 21.2 °F 9.5 °F 10.4 °F 63% 30.66 in 10.0 mi WNW 11.5 mph - N/A   Clear
9:35 AM 23.0 °F 11.1 °F 10.4 °F 59% 30.67 in 10.0 mi WNW 12.7 mph - N/A   Clear
9:55 AM 24.8 °F 12.9 °F 10.4 °F 54% 30.67 in 10.0 mi WNW 13.8 mph - N/A   Clear
10:15 AM 26.6 °F 14.7 °F 10.4 °F 51% 30.67 in 10.0 mi NW 15.0 mph - N/A   Clear
10:35 AM 28.4 °F 17.5 °F 8.6 °F 43% 30.67 in 10.0 mi NW 13.8 mph - N/A   Clear
10:55 AM 30.2 °F 19.8 °F 6.8 °F 37% 30.66 in 10.0 mi NW 13.8 mph - N/A   Clear
11:15 AM 30.2 °F 18.5 °F 5.0 °F 34% 30.66 in 10.0 mi NNW 17.3 mph - N/A   Clear
11:35 AM 32.0 °F 21.6 °F 5.0 °F 32% 30.65 in 10.0 mi NW 15.0 mph - N/A   Clear
11:55 AM 32.0 °F 22.1 °F 5.0 °F 32% 30.64 in 10.0 mi NNW 13.8 mph - N/A   Clear
12:15 PM 32.0 °F 21.6 °F 3.2 °F 30% 30.62 in 10.0 mi NW 15.0 mph - N/A   Clear
12:35 PM 32.0 °F 22.5 °F 3.2 °F 30% 30.62 in 10.0 mi NW 12.7 mph - N/A   Clear
12:55 PM 33.8 °F 23.5 °F 3.2 °F 28% 30.62 in 10.0 mi NW 16.1 mph 20.7 mph N/A   Clear
1:15 PM 33.8 °F 23.9 °F 1.4 °F 25% 30.60 in 10.0 mi NNW 15.0 mph 21.9 mph N/A   Clear
1:35 PM 33.8 °F 25.3 °F 1.4 °F 25% 30.59 in 10.0 mi NW 11.5 mph 20.7 mph N/A   Clear
1:55 PM 33.8 °F 23.5 °F 1.4 °F 25% 30.58 in 10.0 mi NW 16.1 mph 23.0 mph N/A   Clear
2:15 PM 35.6 °F 25.9 °F -0.4 °F 22% 30.58 in 10.0 mi NNW 16.1 mph 19.6 mph N/A   Clear
2:35 PM 35.6 °F 26.2 °F -0.4 °F 22% 30.57 in 10.0 mi NW 15.0 mph - N/A   Clear
2:55 PM 35.6 °F 26.6 °F -0.4 °F 22% 30.57 in 10.0 mi NW 13.8 mph 21.9 mph N/A   Clear
3:15 PM 35.6 °F 28.0 °F 1.4 °F 24% 30.57 in 10.0 mi NW 10.4 mph 13.8 mph N/A   Clear
3:35 PM 35.6 °F 26.6 °F -0.4 °F 22% 30.57 in 10.0 mi NNW 13.8 mph - N/A   Clear
3:55 PM 33.8 °F 25.3 °F 1.4 °F 25% 30.56 in 10.0 mi NNW 11.5 mph - N/A   Clear
4:15 PM 33.8 °F 25.8 °F 1.4 °F 25% 30.56 in 10.0 mi NNW 10.4 mph - N/A   Clear
4:35 PM 32.0 °F 24.8 °F 3.2 °F 30% 30.56 in 10.0 mi NNW 8.1 mph - N/A   Clear
4:55 PM 32.0 °F 25.6 °F 3.2 °F 30% 30.56 in 10.0 mi NNW 6.9 mph - N/A   Clear
5:15 PM 28.4 °F 21.2 °F 3.2 °F 34% 30.55 in 10.0 mi NNW 6.9 mph - N/A   Clear
5:35 PM 24.8 °F 17.9 °F 5.0 °F 43% 30.54 in 10.0 mi NNW 5.8 mph - N/A   Clear
5:55 PM 23.0 °F 15.8 °F 5.0 °F 46% 30.54 in 10.0 mi NNW 5.8 mph - N/A   Clear
6:15 PM 24.8 °F 17.9 °F 3.2 °F 40% 30.53 in 10.0 mi North 5.8 mph - N/A   Clear
6:35 PM 28.4 °F - 3.2 °F 34% 30.53 in 10.0 mi Calm Calm - N/A   Clear
6:55 PM 26.6 °F - 1.4 °F 34% 30.52 in 10.0 mi Calm Calm - N/A   Clear
7:15 PM 23.0 °F - 5.0 °F 46% 30.52 in 10.0 mi Calm Calm - N/A   Clear
7:35 PM 21.2 °F - 5.0 °F 50% 30.52 in 10.0 mi Calm Calm - N/A   Clear
7:55 PM 23.0 °F - 3.2 °F 43% 30.52 in 10.0 mi Calm Calm - N/A   Clear
8:15 PM 21.2 °F - 5.0 °F 50% 30.51 in 10.0 mi Calm Calm - N/A   Clear
8:35 PM 17.6 °F - 5.0 °F 58% 30.51 in 10.0 mi Calm Calm - N/A   Clear
8:55 PM 17.6 °F 12.3 °F 5.0 °F 58% 30.52 in 10.0 mi ENE 3.5 mph - N/A   Clear
9:15 PM 17.6 °F - 5.0 °F 58% 30.52 in 10.0 mi Calm Calm - N/A   Clear
9:35 PM 14.0 °F - 5.0 °F 67% 30.52 in 10.0 mi Calm Calm - N/A   Clear
9:55 PM 17.6 °F - 6.8 °F 63% 30.51 in 10.0 mi Calm Calm - N/A   Clear
10:15 PM 17.6 °F - 5.0 °F 58% 30.49 in 10.0 mi Calm Calm - N/A   Clear
10:35 PM 19.4 °F 12.8 °F 5.0 °F 54% 30.49 in 10.0 mi East 4.6 mph - N/A   Clear
10:55 PM 17.6 °F 12.3 °F 5.0 °F 58% 30.47 in 10.0 mi SE 3.5 mph - N/A   Clear
11:15 PM 19.4 °F 14.3 °F 5.0 °F 54% 30.47 in 10.0 mi SE 3.5 mph - N/A   Clear
11:35 PM 19.4 °F 12.8 °F 5.0 °F 54% 30.46 in 10.0 mi SSE 4.6 mph - N/A   Clear
11:55 PM 19.4 °F 11.5 °F 5.0 °F 54% 30.45 in 10.0 mi South 5.8 mph - N/A   Clear